Torna al catalogo

STARLINK-34836

AttivoComunicazioniSSO
NORAD 65399·PAYLOAD·🇺🇸 United States

Lanciato Aug 30, 2025 da Vandenberg Space Force Base

Loading…

Prossimi Passaggi (prossime 24 ore)

TLE

AggiornatoSource: CelesTrak SupGP

Epoca: Sep 14, 2026, 15:30 UTC

1 65399C 25191W   26257.64631944  .00004611  00000+0  14311-3 0  2570
2 65399  97.2843 123.7104 0001850  85.5793  90.5516 15.33441764    11

Traccia STARLINK-34836 in tempo reale con AllMySat

Download on the App Store